Regional Weather Roundup
Issued by NWS

Home | Current Version | Previous Version | Graphics & Text | Print | Product List | Glossary On
Versions: 1 2 3 4 5 6 7 8 9 10 11 12 13 14 15 16 17 18 19 20 21 22 23 24 25 26 27 28 29 30 31 32 33 34 35 36 37 38 39 40 41 42 43 44 45 46 47 48 49 50
000
ASUS43 KMPX 230710
RWRMN
WEATHER ROUNDUP FOR MINNESOTA
NATIONAL WEATHER SERVICE TWIN CITIES/CHANHASSEN MN
200 AM CDT SAT MAY 23 2015


NOTE: "FAIR" INDICATES FEW OR NO CLOUDS BELOW 12,000 FEET WITH NO
SIGNIFICANT WEATHER AND/OR OBSTRUCTIONS TO VISIBILITY. N/A MEANS
CURRENT SKY AND/OR WEATHER CONDITIONS ARE NOT AVAILABLE.

MNZ060>063-068>070-230800-
   Twin Cities Metro

CITY           SKY/WX    TMP DP  RH WIND       PRES   REMARKS
TWIN CITIES    PTCLDY    59  38  45 SE5       30.20S
ST PAUL        FAIR      53  45  74 E3        30.21S
CRYSTAL        CLEAR     50  43  77 CALM      30.19S
BLAINE         CLEAR     54  43  66 CALM      30.20S
LAKEVILLE      CLEAR     46  41  81 CALM      30.21R
EDEN PRAIRIE   CLEAR     55  39  54 SE5       30.19S
SOUTH ST PAUL  CLEAR     52  44  75 CALM      30.20S
LAKE ELMO      FAIR      46  43  87 CALM      30.22S
$$
MNZ001>005-007-008-013>017-022>024-027-028-230800-
   Northwest Minnesota

CITY           SKY/WX    TMP DP  RH WIND       PRES   REMARKS
BEMIDJI        CLEAR     51  42  71 SW5       30.17S
HALLOCK        CLEAR     50  45  81 S6        30.11S
ROSEAU         CLEAR     59  43  55 SW9       30.11S
WARROAD        PTCLDY    61  43  51 SW6       30.12R
THIEF RVR FALL CLEAR     55  39  54 S8        30.15S
CROOKSTON      CLEAR     52  39  62 SE8       30.15S
FOSSTON        CLEAR     48  37  66 CALM      30.17S
DETROIT LAKES  CLEAR     52  43  71 CALM      30.18S
MOORHEAD       CLEAR     55  39  54 S9        30.16R
PARK RAPIDS    CLEAR     51  40  65 CALM      30.18R
MAHNOMEN       FAIR      55  38  53 S6        30.16S
$$
MNZ006-009>011-018-025>026-230800-
   North Central Minnesota

CITY           SKY/WX    TMP DP  RH WIND       PRES   REMARKS
BAUDETTE       CLEAR     58  38  47 W8        30.11S
INTL FALLS     PTCLDY    49  40  71 SW3       30.12R
WASKISH        CLEAR     57  43  58 CALM      30.14S
BIG FORK       CLEAR     45  43  93 CALM      30.16S
LONGVILLE      CLEAR     43  41  93 CALM      30.18S
GRAND RAPIDS   CLEAR     54  37  54 S5        30.18S
CRANE LAKE     PTCLDY    45  41  87 CALM      30.15R
ORR            PTCLDY    55  34  44 CALM      30.12S
COOK           CLEAR     55  36  47 SW3       30.16R
WALKER         FAIR      51  37  58 CALM      30.17S
$$
MNZ012-019>021-037-230800-
   Northeast Minnesota

CITY           SKY/WX    TMP DP  RH WIND       PRES   REMARKS
DULUTH         CLEAR     55  36  48 W9        30.18S
ELY            CLEAR     54  36  50 CALM      30.15R
HIBBING        CLEAR     42  36  79 CALM      30.17R
EVELETH        CLEAR     45  37  76 CALM      30.18S
DULUTH HARBOR  CLEAR     45  37  76 SW3       30.19S
TWO HARBORS    CLEAR     45  37  76 CALM      30.16S
SILVER BAY     CLEAR     37  34  87 CALM      30.15S
GRAND MARAIS     N/A     39  31  72 W5        30.14S
G MARAIS ARPRT CLEAR     46  27  46 W5        30.15S
$$
MNZ029>031-032-039>041-046>048-054>057-064-230800-
   West Central Minnesota

CITY           SKY/WX    TMP DP  RH WIND       PRES   REMARKS
FERGUS FALLS   CLEAR     55  39  54 S8        30.18R
WHEATON        PTCLDY    54  43  66 SW5       30.19S
MORRIS         CLEAR     54  45  71 W7        30.19R
ALEXANDRIA     PTCLDY    55  39  54 S7        30.20R
ELBOW LAKE     FAIR      54  42  65 SW9       30.18R
WADENA         CLEAR     46  37  71 CALM      30.18R
GLENWOOD       FAIR      52  41  66 S8        30.21R
APPLETON       CLEAR     54  45  71 SW3       30.20R
BENSON         PTCLDY    52  45  76 W3        30.20S
ORTONVILLE     CLEAR     54  41  62 W3        30.19S
MADISON        PTCLDY    54  43  66 CALM      30.20S
WILLMAR        FAIR      55  46  71 W7        30.22S
$$
MNZ033>034-036-042>043-049>051-058-059-230800-
   Central Minnesota

CITY           SKY/WX    TMP DP  RH WIND       PRES   REMARKS
ST CLOUD       FAIR      46  42  86 CALM      30.19S
SAUK CENTRE    FAIR      49  44  83 S3        30.20R
PAYNESVILLE    CLEAR     54  38  54 S3        30.21R
AITKIN         CLEAR     45  39  81 CALM      30.18S
PINE RIVER     CLEAR     45  39  81 CALM      30.21S
BRAINERD       CLEAR     45  41  86 CALM      30.19S
STAPLES        CLEAR     46  39  76 CALM      30.18S
LONG PRAIRIE   FAIR      50  37  62 CALM      30.20R
LITTLE FALLS   CLEAR     45  37  76 CALM      30.19S
LITCHFIELD     CLEAR     57  39  51 CALM      30.21R
BUFFALO        CLEAR     51  44  76 CALM      30.21R
MAPLE LAKE     CLEAR     49  48  95 CALM      30.21R
$$
MNZ037-044-045-052-053-230800-
   East Central Minnesota

CITY           SKY/WX    TMP DP  RH WIND       PRES   REMARKS
PRINCETON      FAIR      46  43  87 CALM      30.20S
MORA           CLEAR     43  41  93 CALM      30.22R
CAMBRIDGE      CLEAR     52  41  66 CALM      30.18S
RUSH CITY      CLEAR     47  39  74 CALM      30.20S
MOOSE LAKE     CLEAR     43  37  81 CALM      30.18S
HINCKLEY       FAIR      43  41  93 CALM      30.20S
CLOQUET        CLEAR     55  34  44 SW7       30.19S
MCGREGOR       CLEAR     50  41  71 CALM      30.20R
$$
MNZ071>073-080-081-089-090-097-098-230800-
   Southwest Minnesota

CITY           SKY/WX    TMP DP  RH WIND       PRES   REMARKS
MONTEVIDEO     PTCLDY    54  43  66 CALM      30.21F
GRANITE FALLS  PTCLDY    53  42  66 CALM      30.22S
CANBY          PTCLDY    55  43  64 W3        30.20S
MARSHALL       MOCLDY    55  41  58 CALM      30.20S
REDWOOD FALLS  MOCLDY    57  43  59 NW3       30.21S
OLIVIA         PTCLDY    50  41  71 W3        30.21S
PIPESTONE      CLOUDY    55  43  62 CALM      30.21R
WINDOM         MOCLDY    54  43  66 CALM      30.22S
WORTHINGTON    CLOUDY    54  41  62 CALM      30.22R
JACKSON        CLOUDY    55  45  67 CALM      30.22S
TRACY          MOCLDY    56  44  64 SW3       30.21S
SLAYTON        PTCLDY    53  44  72 CALM      30.22S
$$
MNZ065>067-074>077-082>085-091>093-230800-
   South Central Minnesota

CITY           SKY/WX    TMP DP  RH WIND       PRES   REMARKS
MANKATO        PTCLDY    57  39  51 NW8       30.22R
NEW ULM        PTCLDY    55  43  62 W8        30.21S
ST JAMES       MOCLDY    57  45  62 NW3       30.22F
FAIRMONT       CLOUDY    57  39  51 NW5       30.21S
GLENCOE        CLEAR     59  40  50 CALM      30.20R
FARIBAULT      PTCLDY    55  39  54 SE3       30.21S
OWATONNA       PTCLDY    57  37  47 SE3       30.22R
WASECA         PTCLDY    52  37  58 S3        30.23R
ALBERT LEA     MOCLDY    61  43  51 NW6       30.22S
$$
MNZ078>079-086>088-094>096-230800-
   Southeast Minnesota

CITY           SKY/WX    TMP DP  RH WIND       PRES   REMARKS
ROCHESTER      PTCLDY    54  39  57 SE7       30.23S
RED WING       CLEAR     46  43  87 CALM      30.21S
STANTON        CLEAR     51  39  63 CALM      30.19S
DODGE CENTER   PTCLDY    57  39  51 SE8       30.21S
WINONA         PTCLDY    48  46  93 CALM      30.23S
AUSTIN         MOCLDY    54  41  62 CALM      30.22R
PRESTON        MOCLDY    55  40  58 CALM      30.22S
$$
ABBREVIATIONS USED IN REMARKS
   TC - TEMPERATURES IN CELSIUS
  WCI - WIND CHILL INDEX
   HX - HEAT INDEX
  VSB - VISIBILITY
$$


USA.gov is the U.S. government's official web portal to all federal, state and local government web resources and services.